Total_Precipitation_Accumulation
0.57 0.43 0.47 0.47 0.36 0.45 0.75 0.75 0.77 0.46 0.34 0.33 0.31 0.28 0.25 0.27 0.27 0.28 0.28 0.30 0.34 0.38 0.42 0.45 0.43 0.42 0.45 0.51 0.58 0.60 0.62 0.69 0.73 0.74 0.78 0.87 0.91 0.87 0.88 0.90 0.96 1.00 1.01 1.06
0.60 0.36 0.35 0.38 0.30 0.34 0.43 0.46 0.51 0.40 0.36 0.27 0.26 0.23 0.23 0.25 0.23 0.21 0.23 0.24 0.26 0.31 0.37 0.40 0.39 0.37 0.38 0.41 0.46 0.47 0.49 0.54 0.61 0.69 0.78 0.87 0.94 0.92 0.88 0.86 0.92 0.99 0.98 1.03
0.60 0.30 0.42 0.47 0.34 0.38 0.40 0.38 0.44 0.48 0.39 0.24 0.23 0.22 0.22 0.23 0.20 0.18 0.18 0.18 0.19 0.22 0.28 0.30 0.30 0.33 0.35 0.37 0.40 0.43 0.42 0.43 0.51 0.64 0.74 0.79 0.85 0.89 0.90 0.91 1.01 1.10 1.11 1.12
0.71 0.50 0.59 0.34 0.21 0.26 0.33 0.36 0.37 0.35 0.27 0.20 0.20 0.21 0.21 0.21 0.19 0.16 0.15 0.15 0.15 0.18 0.21 0.22 0.23 0.26 0.27 0.29 0.34 0.42 0.46 0.48 0.52 0.59 0.69 0.79 0.83 0.89 0.94 0.96 1.05 1.15 1.20 1.22
0.86 0.65 0.36 0.17 0.13 0.19 0.30 0.35 0.24 0.21 0.18 0.13 0.14 0.16 0.16 0.17 0.16 0.15 0.15 0.15 0.14 0.16 0.17 0.16 0.18 0.22 0.22 0.23 0.29 0.37 0.44 0.48 0.49 0.54 0.64 0.75 0.85 0.92 0.96 1.01 1.06 1.12 1.12 1.09
0.97 0.78 0.42 0.21 0.09 0.10 0.26 0.47 0.20 0.14 0.13 0.12 0.14 0.21 0.18 0.15 0.16 0.13 0.14 0.18 0.18 0.17 0.17 0.17 0.18 0.21 0.24 0.26 0.30 0.38 0.41 0.46 0.47 0.51 0.59 0.70 0.80 0.89 0.94 0.95 0.96 0.95 0.95 0.91
0.82 0.74 0.35 0.16 0.08 0.11 0.41 0.56 0.22 0.15 0.14 0.15 0.18 0.19 0.15 0.12 0.12 0.13 0.14 0.19 0.23 0.26 0.26 0.27 0.29 0.30 0.32 0.33 0.36 0.39 0.42 0.47 0.49 0.52 0.58 0.67 0.73 0.76 0.78 0.77 0.75 0.73 0.72 0.70
0.54 0.71 0.44 0.20 0.17 0.30 0.39 0.25 0.18 0.17 0.17 0.20 0.22 0.19 0.16 0.14 0.13 0.14 0.17 0.21 0.26 0.31 0.33 0.34 0.36 0.37 0.38 0.40 0.41 0.41 0.43 0.48 0.52 0.54 0.53 0.54 0.57 0.61 0.60 0.59 0.59 0.57 0.58 0.59
0.42 0.46 0.35 0.27 0.31 0.33 0.29 0.24 0.20 0.18 0.18 0.20 0.26 0.26 0.23 0.20 0.18 0.17 0.18 0.22 0.25 0.27 0.28 0.29 0.33 0.38 0.42 0.43 0.41 0.40 0.42 0.44 0.45 0.46 0.45 0.46 0.46 0.48 0.50 0.51 0.53 0.54 0.54 0.55
0.37 0.35 0.28 0.26 0.26 0.23 0.22 0.22 0.21 0.20 0.21 0.22 0.24 0.27 0.25 0.25 0.23 0.22 0.21 0.19 0.19 0.21 0.22 0.23 0.24 0.28 0.32 0.33 0.33 0.32 0.35 0.34 0.33 0.34 0.36 0.37 0.38 0.40 0.44 0.46 0.46 0.47 0.49 0.49
0.35 0.29 0.22 0.21 0.19 0.18 0.16 0.14 0.14 0.16 0.18 0.20 0.20 0.23 0.25 0.24 0.22 0.22 0.21 0.19 0.17 0.17 0.17 0.18 0.19 0.20 0.23 0.25 0.26 0.26 0.27 0.26 0.25 0.26 0.32 0.36 0.36 0.38 0.41 0.44 0.49 0.50 0.47 0.47
0.38 0.26 0.25 0.24 0.19 0.17 0.16 0.15 0.15 0.16 0.17 0.17 0.17 0.20 0.21 0.21 0.19 0.19 0.20 0.20 0.17 0.15 0.16 0.16 0.16 0.16 0.17 0.20 0.23 0.25 0.24 0.24 0.24 0.23 0.27 0.34 0.38 0.38 0.42 0.46 0.52 0.56 0.56 0.53
0.24 0.21 0.19 0.18 0.17 0.15 0.15 0.15 0.14 0.14 0.15 0.15 0.13 0.14 0.15 0.16 0.17 0.17 0.16 0.16 0.15 0.15 0.15 0.14 0.15 0.16 0.16 0.17 0.20 0.23 0.24 0.26 0.26 0.26 0.29 0.33 0.36 0.37 0.38 0.39 0.43 0.50 0.53 0.54
0.13 0.11 0.13 0.11 0.12 0.11 0.11 0.11 0.10 0.10 0.11 0.11 0.12 0.12 0.12 0.13 0.15 0.17 0.17 0.18 0.17 0.15 0.14 0.14 0.14 0.14 0.14 0.15 0.17 0.21 0.24 0.26 0.25 0.26 0.30 0.33 0.36 0.38 0.36 0.34 0.34 0.36 0.41 0.48
0.08 0.08 0.10 0.08 0.06 0.06 0.07 0.06 0.06 0.08 0.08 0.10 0.11 0.12 0.13 0.15 0.18 0.20 0.20 0.18 0.18 0.16 0.14 0.12 0.13 0.13 0.13 0.14 0.16 0.18 0.22 0.23 0.23 0.25 0.28 0.31 0.34 0.37 0.37 0.34 0.33 0.31 0.31 0.37
0.09 0.07 0.07 0.06 0.06 0.05 0.06 0.06 0.07 0.08 0.08 0.09 0.12 0.13 0.14 0.16 0.18 0.20 0.19 0.18 0.18 0.16 0.14 0.13 0.12 0.12 0.13 0.16 0.17 0.18 0.19 0.23 0.24 0.24 0.26 0.29 0.31 0.34 0.36 0.34 0.33 0.31 0.30 0.31
0.14 0.12 0.11 0.10 0.09 0.08 0.08 0.09 0.09 0.09 0.10 0.10 0.12 0.14 0.15 0.16 0.17 0.19 0.18 0.18 0.18 0.18 0.16 0.15 0.15 0.13 0.14 0.16 0.18 0.19 0.20 0.21 0.25 0.24 0.25 0.28 0.30 0.33 0.36 0.38 0.37 0.33 0.31 0.36
0.17 0.17 0.17 0.16 0.15 0.13 0.11 0.11 0.11 0.11 0.11 0.12 0.11 0.12 0.14 0.16 0.19 0.20 0.20 0.19 0.19 0.19 0.18 0.18 0.18 0.17 0.16 0.16 0.18 0.20 0.22 0.22 0.22 0.23 0.24 0.27 0.32 0.33 0.34 0.36 0.36 0.35 0.32 0.37
0.15 0.18 0.19 0.17 0.17 0.16 0.15 0.15 0.15 0.14 0.14 0.13 0.14 0.15 0.16 0.17 0.18 0.20 0.22 0.21 0.21 0.21 0.21 0.20 0.22 0.19 0.16 0.18 0.22 0.22 0.23 0.23 0.24 0.24 0.26 0.30 0.32 0.31 0.32 0.33 0.35 0.35 0.34 0.34
0.17 0.18 0.19 0.18 0.17 0.17 0.16 0.15 0.14 0.13 0.13 0.13 0.14 0.16 0.17 0.19 0.19 0.20 0.21 0.21 0.22 0.23 0.23 0.23 0.22 0.18 0.17 0.19 0.25 0.23 0.23 0.25 0.27 0.28 0.29 0.30 0.30 0.30 0.31 0.33 0.34 0.34 0.34 0.34
0.17 0.17 0.17 0.18 0.18 0.18 0.18 0.17 0.16 0.15 0.14 0.13 0.15 0.16 0.17 0.18 0.19 0.19 0.19 0.20 0.19 0.19 0.19 0.22 0.20 0.18 0.20 0.25 0.30 0.26 0.25 0.27 0.29 0.30 0.30 0.31 0.32 0.32 0.32 0.32 0.33 0.34 0.34 0.34
0.17 0.17 0.18 0.18 0.18 0.18 0.17 0.16 0.16 0.16 0.16 0.16 0.15 0.15 0.16 0.17 0.17 0.17 0.17 0.18 0.18 0.20 0.19 0.17 0.18 0.22 0.29 0.33 0.29 0.26 0.27 0.29 0.31 0.32 0.32 0.31 0.32 0.33 0.34 0.35 0.36 0.36 0.36 0.37
0.16 0.16 0.16 0.16 0.16 0.17 0.17 0.16 0.16 0.17 0.18 0.18 0.18 0.18 0.18 0.18 0.18 0.19 0.19 0.17 0.17 0.18 0.18 0.18 0.22 0.28 0.32 0.30 0.26 0.25 0.27 0.30 0.31 0.31 0.31 0.32 0.33 0.35 0.37 0.37 0.36 0.36 0.37 0.37
0.14 0.14 0.14 0.14 0.14 0.15 0.16 0.17 0.17 0.17 0.17 0.18 0.18 0.18 0.18 0.19 0.19 0.18 0.18 0.18 0.19 0.20 0.19 0.19 0.24 0.27 0.28 0.25 0.23 0.24 0.26 0.28 0.29 0.30 0.31 0.33 0.34 0.35 0.36 0.35 0.34 0.32 0.32 0.33
0.12 0.12 0.13 0.14 0.13 0.13 0.15 0.16 0.16 0.16 0.16 0.16 0.16 0.16 0.17 0.18 0.19 0.18 0.17 0.16 0.17 0.19 0.17 0.18 0.21 0.23 0.23 0.21 0.21 0.23 0.24 0.26 0.29 0.32 0.32 0.32 0.32 0.33 0.34 0.33 0.32 0.31 0.30 0.29
0.09 0.09 0.10 0.11 0.13 0.13 0.15 0.17 0.19 0.17 0.16 0.17 0.16 0.15 0.14 0.14 0.14 0.15 0.16 0.17 0.17 0.19 0.17 0.16 0.18 0.20 0.21 0.21 0.22 0.23 0.24 0.24 0.25 0.26 0.26 0.28 0.30 0.32 0.32 0.31 0.30 0.29 0.28 0.27
0.07 0.07 0.07 0.08 0.10 0.11 0.12 0.15 0.18 0.19 0.18 0.18 0.18 0.15 0.14 0.15 0.16 0.17 0.17 0.17 0.17 0.18 0.17 0.17 0.19 0.21 0.22 0.22 0.23 0.23 0.23 0.23 0.23 0.24 0.25 0.27 0.29 0.30 0.29 0.30 0.30 0.29 0.29 0.27